{"data":{"norad_id":48915,"intl_designator":"2021-059AN","name":"YAM-3","alt_names":[],"object_type":"PAYLOAD","status":"ACTIVE","operator":null,"country":"US","launch_date":"2021-06-30","launch_site_code":"AFETR","launch_vehicle":null,"mission":null,"orbit_class":"UNKNOWN","rcs_meters":null,"size_class":null,"mass_kg":null,"dimensions":null,"purposes":[],"wikipedia_slug":null,"has_3d_model":false,"image_url":null,"decayed_at":null,"tle_current":{"epoch":"2026-05-25T01:24:59.118912Z","epoch_age_seconds":60102,"freshness":"FRESH","line1":"1 48915U 21059AN  26145.05901758  .00010495  00000+0  20276-3 0  9995","line2":"2 48915  97.7000 330.5135 0006543  83.5182 276.6813 15.47971792273419","mean_motion":15.47971792,"eccentricity":0.0006543,"inclination_deg":97.7,"raan_deg":330.5135,"arg_perigee_deg":83.5182,"mean_anomaly_deg":276.6813,"bstar":0.00020276,"rev_number":27341,"period_min":93.024950935282,"perigee_km":418.21026077651,"apogee_km":427.10978375985,"semimajor_km":6800.7970222682,"source":"CELESTRAK","updated_at":"2026-05-25T13:37:56.976646Z"}}}